Port Angeles, WA
on Wednesday, January 30, 2013

Wednesday
Previous Day Next Day
Daily Summary
 ActualAverageRecord
Temperature
Mean Temperature °F °F  
Max Temperature 48°F 45°F 60°F (1989)
Min Temperature 44°F 34°F 14°F (1950)
Degree Days
Heating Degree Days 19    
Moisture
Dew Point 44°F   
Average Humidity 91    
Maximum Humidity 97    
Minimum Humidity 83    
Precipitation
Precipitation 0.00 in in in ()
Wind
Wind Speed 3 mph   
Max Wind Speed 12 mph   
Max Gust Speed mph   
Visibility 8 miles   
Events Rain   
Averages and records for this station are not official NWS values.
Key: T is trace of precipitation, MM is missing value
Source: NWS Daily Summary
Seasonal Weather Averages
Time(PST)TemperatureDew PointHumidity Pressure Visibility Wind DirectionWind SpeedGust SpeedPrecipitationEvents Conditions
12:53 AM 45.0°F 43.0°F 93% 30.31 in 10.0 miles SSE 3.5 mph - N/A   Overcast
1:53 AM 45.0°F 42.1°F 90% 30.32 in 10.0 miles West 3.5 mph - N/A   Overcast
2:53 AM 44.1°F 42.1°F 93% 30.32 in 10.0 miles Calm Calm - N/A   Overcast
3:53 AM 45.0°F 41.0°F 86% 30.32 in 10.0 miles WSW 4.6 mph - N/A   Mostly Cloudy
4:53 AM 44.1°F 41.0°F 89% 30.33 in 10.0 miles WSW 3.5 mph - 0.00 in Rain Light Rain
5:22 AM 44.1°F 42.1°F 93% 30.32 in 10.0 miles SW 4.6 mph - 0.00 in Rain Light Rain
5:30 AM 45.0°F 42.1°F 90% 30.32 in 10.0 miles WSW 4.6 mph - 0.00 in   Overcast
5:44 AM 45.0°F 42.1°F 90% 30.32 in 10.0 miles West 4.6 mph - 0.00 in   Overcast
5:53 AM 45.0°F 43.0°F 93% 30.33 in 10.0 miles West 3.5 mph - 0.00 in   Overcast
6:53 AM 45.0°F 43.0°F 93% 30.33 in 10.0 miles WSW 4.6 mph - N/A   Mostly Cloudy
7:42 AM 45.0°F 42.1°F 90% 30.33 in 10.0 miles WSW 6.9 mph - N/A   Overcast
7:53 AM 45.0°F 42.1°F 90% 30.34 in 10.0 miles SW 4.6 mph - N/A   Overcast
8:53 AM 46.0°F 43.0°F 89% 30.35 in 10.0 miles SW 4.6 mph - N/A   Overcast
9:53 AM 48.0°F 44.1°F 86% 30.36 in 10.0 miles SSE 4.6 mph - N/A   Overcast
10:53 AM 48.9°F 45.0°F 86% 30.37 in 10.0 miles Calm Calm - N/A   Overcast
11:14 AM 48.9°F 44.1°F 83% 30.37 in 10.0 miles Calm Calm - N/A   Overcast
11:24 AM 48.9°F 45.0°F 86% 30.36 in 10.0 miles Calm Calm - N/A   Overcast
11:53 AM 48.9°F 44.1°F 83% 30.37 in 10.0 miles NNW 3.5 mph - N/A   Overcast
12:32 PM 48.9°F 45.0°F 86% 30.37 in 10.0 miles Variable 4.6 mph - N/A   Overcast
12:53 PM 48.0°F 45.0°F 89% 30.37 in 10.0 miles NW 4.6 mph - N/A   Overcast
1:53 PM 48.0°F 45.0°F 89% 30.37 in 10.0 miles WNW 4.6 mph - N/A   Overcast
2:53 PM 48.0°F 45.0°F 89% 30.37 in 10.0 miles Calm Calm - N/A   Overcast
3:53 PM 48.0°F 46.0°F 93% 30.37 in 8.0 miles Calm Calm - 0.00 in Rain Light Rain
4:14 PM 48.0°F 46.0°F 93% 30.36 in 9.0 miles Calm Calm - 0.00 in Rain Light Rain
4:24 PM 48.0°F 46.0°F 93% 30.37 in 9.0 miles Calm Calm - 0.00 in Rain Light Rain
4:31 PM 48.0°F 46.0°F 93% 30.37 in 10.0 miles Calm Calm - 0.00 in Rain Light Rain
4:53 PM 48.0°F 46.0°F 93% 30.38 in 9.0 miles Calm Calm - 0.00 in Rain Light Rain
5:24 PM 46.9°F 45.0°F 93% 30.36 in 7.0 miles Calm Calm - 0.00 in Rain Light Rain
5:40 PM 46.9°F 45.0°F 93% 30.37 in 8.0 miles Calm Calm - 0.00 in Rain Light Rain
5:53 PM 46.9°F 46.0°F 97% 30.38 in 6.0 miles Calm Calm - 0.00 in Rain Light Rain
6:23 PM 46.9°F 45.0°F 93% 30.36 in 8.0 miles Calm Calm - 0.00 in   Overcast
6:46 PM 46.9°F 46.0°F 97% 30.36 in 8.0 miles Calm Calm - 0.00 in   Overcast
6:53 PM 46.9°F 45.0°F 93% 30.37 in 5.0 miles Calm Calm - 0.00 in   Overcast
7:08 PM 46.9°F 45.0°F 93% 30.36 in 5.0 miles Calm Calm - 0.00 in Rain Light Rain
7:44 PM 46.9°F 45.0°F 93% 30.36 in 2.5 miles Calm Calm - 0.00 in Rain Light Rain
7:53 PM 46.9°F 45.0°F 93% 30.37 in 2.5 miles Calm Calm - 0.00 in Rain Light Rain
8:16 PM 46.9°F 45.0°F 93% 30.36 in 3.0 miles Calm Calm - 0.00 in Rain Light Rain
8:45 PM 46.9°F 45.0°F 93% 30.36 in 2.5 miles Calm Calm - 0.00 in   Overcast
8:53 PM 46.9°F 45.0°F 93% 30.37 in 2.5 miles Calm Calm - 0.00 in Rain Light Rain
9:19 PM 46.9°F 45.0°F 93% 30.36 in 2.5 miles NW 3.5 mph - 0.00 in Rain Light Rain
9:29 PM 46.9°F 45.0°F 93% 30.36 in 4.0 miles NW 3.5 mph - 0.00 in Rain Light Rain
9:53 PM 46.9°F 45.0°F 93% 30.37 in 4.0 miles NW 4.6 mph - 0.00 in Rain Light Rain
10:01 PM 46.9°F 45.0°F 93% 30.37 in 6.0 miles NW 5.8 mph - 0.00 in   Overcast
10:23 PM 46.9°F 45.0°F 93% 30.36 in 6.0 miles WNW 5.8 mph - 0.00 in   Overcast
10:53 PM 46.0°F 45.0°F 96% 30.36 in 10.0 miles WNW 5.8 mph - 0.00 in   Overcast
11:53 PM 46.9°F 44.1°F 90% 30.36 in 10.0 miles WSW 11.5 mph - N/A   Overcast
Moon Phase
Jan. 30 Feb. 03 Feb. 10 Feb. 17 Feb. 25
Sunrise:07:44 AM (PST) Moon Rise:09:39 PM (PST)1/30
Sunset:05:11 PM (PST) Moon Set:08:53 AM (PST)1/30

Copyright © 2014 The Weather Underground, Inc.